TimeEST,TemperatureF,Dew PointF,Humidity,Sea Level PressureIn,VisibilityMPH,Wind Direction,Wind SpeedMPH,Gust SpeedMPH,PrecipitationIn,Events,Conditions,WindDirDegrees,DateUTC
12:53 AM,27.0,14.0,58,29.99,10.0,North,5.8,-,N/A,,Clear,10,2013-01-02 05:53:00
1:53 AM,27.0,12.9,56,30.00,10.0,North,5.8,-,N/A,,Clear,360,2013-01-02 06:53:00
2:53 AM,26.1,12.9,58,30.01,10.0,North,5.8,-,N/A,,Clear,10,2013-01-02 07:53:00
3:53 AM,25.0,12.9,60,30.00,10.0,North,10.4,-,N/A,,Clear,10,2013-01-02 08:53:00
4:53 AM,25.0,12.0,58,30.01,10.0,NNE,5.8,-,N/A,,Clear,20,2013-01-02 09:53:00
5:53 AM,24.1,12.0,60,30.02,10.0,NNE,4.6,-,N/A,,Clear,20,2013-01-02 10:53:00
6:53 AM,24.1,12.0,60,30.03,10.0,Calm,Calm,-,N/A,,Clear,0,2013-01-02 11:53:00
7:53 AM,24.1,12.0,60,30.05,10.0,Calm,Calm,-,N/A,,Clear,0,2013-01-02 12:53:00
8:53 AM,25.0,12.9,60,30.07,10.0,WNW,3.5,-,N/A,,Clear,300,2013-01-02 13:53:00
10:53 AM,28.9,14.0,54,30.08,10.0,NNW,8.1,-,N/A,,Clear,340,2013-01-02 15:53:00
11:53 AM,30.9,15.1,52,30.05,10.0,North,10.4,19.6,N/A,,Mostly Cloudy,360,2013-01-02 16:53:00
12:53 PM,30.9,15.1,52,30.04,10.0,NW,11.5,-,N/A,,Clear,310,2013-01-02 17:53:00
1:53 PM,32.0,15.1,50,30.04,10.0,NW,8.1,19.6,N/A,,Partly Cloudy,320,2013-01-02 18:53:00
2:53 PM,33.1,15.1,48,30.06,10.0,NNW,10.4,-,N/A,,Clear,340,2013-01-02 19:53:00
3:53 PM,32.0,12.9,45,30.08,10.0,North,8.1,-,N/A,,Clear,350,2013-01-02 20:53:00
4:53 PM,30.0,12.9,49,30.09,10.0,NW,5.8,-,N/A,,Clear,320,2013-01-02 21:53:00
5:53 PM,30.0,14.0,51,30.12,10.0,Calm,Calm,-,N/A,,Clear,0,2013-01-02 22:53:00
6:53 PM,28.0,14.0,56,30.13,10.0,WNW,4.6,-,N/A,,Clear,290,2013-01-02 23:53:00
7:53 PM,28.0,14.0,56,30.15,10.0,West,3.5,-,N/A,,Clear,280,2013-01-03 00:53:00
8:53 PM,27.0,14.0,58,30.14,10.0,WNW,4.6,-,N/A,,Clear,290,2013-01-03 01:53:00
9:53 PM,27.0,14.0,58,30.16,10.0,NW,4.6,-,N/A,,Clear,310,2013-01-03 02:53:00
10:53 PM,26.1,14.0,60,30.17,10.0,NW,4.6,-,N/A,,Clear,320,2013-01-03 03:53:00
11:53 PM,26.1,14.0,60,30.18,10.0,NW,3.5,-,N/A,,Clear,310,2013-01-03 04:53:00